STARLINK-1857 (47144 NORAD) Tracking and Keplerian Element Data

This shows tracking and keplerian element data for the satellite.

Feedback or suggestion? Click here.




ElementValue
Catalog47144
NameSTARLINK-1857
Epoch Orbit176
Epoch Day62.91667824
Epoch Year2021
RAAN229.8915
Inclination53.0543
Eccentricity0.0001429
Argument of Perigee66.4546
Mean Anonmoly22.571
Mean Motion15.43820266
Decay Rate-0.00317264
L11 47144U 20088Y 21062.91667824 -.00317264 00000-0 -71719-2 0 9994
L22 47144 53.0543 229.8915 0001429 66.4546 22.5710 15.43820266 1763

Live tracking and technical data element details for STARLINK-1857 (NORAD 47144). STARLINK-1857 can be tracked NOW for your location showing map with azimuth and elevation plus other details from your city location.

Track the satellite on the map from your city or location and see movement details for azimuth, elevation, latitude, longitude, range, height, and movement on the map or in text.







IsCatalogInMostPopularTable: catalog: 47144, numindb: 34
Update: records affected: 1



GetName: 47144 STARLINK-1857

Hit Count: updated at: Fri, 05 Mar 2021 06:55:52 GMT